Location: Mountain Grove
(34.0887°N, 86.6172°W)
Time: 13:26:21
(UTC+00:00)

NOSS 3-3 (C) - Pass Details

Date: 14 July 2020
Orbit: 824 x 1388 km, 63.4° (Epoch: 03 August)

Event Time Altitude Azimuth Distance (km) Brightness Sun altitude
Rises 01:17:16 0° 215° (SW) 3,355 6.9 -4.1°
Reaches altitude 10° 01:19:38 10° 217° (SW) 2,448 6.2 -4.6°
Maximum altitude 01:25:14 74° 301° (WNW) 925 4.2 -5.6°
Drops below altitude 10° 01:31:28 10° 27° (NNE) 2,713 6.4 -6.7°
Sets 01:34:13 0° 30° (NNE) 3,747 7.1 -7.1°
